426  
ASUS43 KEAX 261210  
RWREAX  
 
WEATHER ROUNDUP FOR EASTERN KANSAS AND NORTHWEST MISSOURI  
NATIONAL WEATHER SERVICE KANSAS CITY/PLEASANT HILL MO  
700 AM CDT TUE MAR 26 2019  
 
KSZ040-057-103>105-MOZ028-029-037-043-261300-   
..KANSAS CITY METROPOLITAN AREA
 
 
 
CITY SKY/WX TMP DP RH WIND PRES REMARKS
 
K.C. INTL MOCLDY 38 36 92 E3 30.36R  
6HR MIN TEMP: 36; 6HR MAX TEMP: 42;  
 
K.C. DOWNTOWN MOCLDY 40 35 83 N3 30.37R  
6HR MIN TEMP: 39; 6HR MAX TEMP: 47;  
 
LEES SUMMIT PTCLDY 39 35 86 NE5 30.37R  
6HR MIN TEMP: 38; 6HR MAX TEMP: 44;  
 
OLATHE - IXD PTCLDY 37 36 96 NE5 30.36R FOG WCI 33  
6HR MIN TEMP: 34; 6HR MAX TEMP: 44;  
 
OLATHE - OJC PTCLDY 37 36 96 NE7 30.36R FOG WCI 32  
6HR MIN TEMP: 36; 6HR MAX TEMP: 44;  
 
LAWRENCE CLEAR 32 29 88 NW6 30.37R FOG WCI 26  
 

 
 
MOZ001>008-011>017-020>025-030>033-038>040-044>046-053-054-261300-   
..NORTHERN AND CENTRAL MISSOURI
 
 
 
CITY SKY/WX TMP DP RH WIND PRES REMARKS
 
ST. JOSEPH CLOUDY 38 37 97 N5 30.38R WCI 34  
6HR MIN TEMP: 36; 6HR MAX TEMP: 43;  
 
MOSBY CLOUDY 34 32 93 CALM 30.39R FOG  
WARRENSBURG PTCLDY 37 36 93 CALM 30.37S  
WHITEMAN AFB CLEAR 38 36 95 CALM 30.33R  
6HR MIN TEMP: 36; 6HR MAX TEMP: 45;  
 
CLINTON CLEAR 37 36 93 E3 30.37R  
SEDALIA PTCLDY 39 34 82 E5 30.37R  
6HR MIN TEMP: 39; 6HR MAX TEMP: 49;  
 
WARSAW NOT AVBL  
CHILLICOTHE N/A 33 33 100 CALM 30.40R  
6HR MIN TEMP: 33; 6HR MAX TEMP: 42;  
 
KIRKSVILLE CLEAR 34 27 75 E6 30.39S WCI 29  
6HR MIN TEMP: 34; 6HR MAX TEMP: 40;  
 

 
 
MOZ041-047>049-056>058-063>065-088>090-097-261300-   
..EASTERN AND SOUTHERN MISSOURI
 
 
 
CITY SKY/WX TMP DP RH WIND PRES REMARKS
 
ST. LOUIS INTL PTCLDY 31 20 63 N5 30.40R WCI 26  
6HR MIN TEMP: 31; 6HR MAX TEMP: 44;  
 
SPIRIT OF STL PTCLDY 31 23 72 CALM 30.39R  
COLUMBIA PTCLDY 38 29 70 E6 30.37S WCI 33  
JEFFERSON CITY CLOUDY 42 30 62 E6 30.39R  
ROLLA PTCLDY 36 30 79 NE6 30.36R WCI 31  
OSAGE BEACH CLEAR 36 34 92 N3 30.38R  
SPRINGFIELD FOG 34 33 96 E3 30.33R VSB 1/2  
BRANSON PTCLDY 39 39 100 CALM 30.34R FOG  
JOPLIN FOG 35 35 100 CALM 30.35R VSB 1/4  
WEST PLAINS CLOUDY 42 37 82 N5 30.34R  
 

 
 
IAZ060-094-KSZ022-034>040-054-083-096-NEZ052-066-093-261300-    
..KANSAS...SOUTHEAST NEBRASKA AND IOWA
 
 
 
CITY SKY/WX TMP DP RH WIND PRES REMARKS
 
TOPEKA FOG 33 31 92 CALM 30.37R VSB 1/4  
6HR MIN TEMP: 32; 6HR MAX TEMP: 41;  
 
MANHATTAN CLOUDY 42 37 82 CALM 30.35R  
EMPORIA FOG 33 33 100 CALM 30.35S VSB 1/4  
CHANUTE FOG 34 34 100 CALM 30.35S VSB 1/4  
WICHITA PTCLDY 34 31 88 SW3 30.35R FOG  
OMAHA CLOUDY 42 34 73 SE7 30.36S  
LINCOLN CLOUDY 41 37 86 CALM 30.36R  
FALLS CITY CLOUDY 37 36 96 CALM 30.37R  
LAMONI CLEAR 35 32 88 NE5 30.37R WCI 31  
DES MOINES CLOUDY 30 28 92 CALM 30.39R FOG  
 

 
 
 
 
CLICK HERE TO GO TO PREVIOUS BULLETINS.

The Nexlab MO Page
The Nexlab KS Page Main Text Page